KL7GG Weather Reports


Display with metric or nautical units.
time (UTC)temp
F
wind
direction
speed
MPH
gust
MPH
rain 1hr
in
rain 24hr
in
rain mn
in
humidity
%
barometer
mb
20260503023845 50 132 7.0 17.0 0.00 0.00 0.00 42 1016.3
20260503022340 50 194 6.0 13.0 0.00 0.00 0.00 42 1016.6
20260503020837 50 136 4.0 13.0 0.00 0.00 0.00 43 1016.4
20260503015333 50 146 5.0 13.0 0.00 0.00 0.00 41 1016.2
20260503013829 51 150 1.0 13.0 0.00 0.00 0.00 41 1016.1
20260503012324 53 167 6.0 19.0 0.00 0.00 0.00 37 1016.0
20260503010820 52 143 5.0 15.0 0.00 0.00 0.00 37 1016.0
20260503005316 52 176 4.0 12.0 0.00 0.00 0.00 37 1016.0
20260503003810 53 153 5.0 16.0 0.00 0.00 0.00 35 1015.7
20260503002306 55 164 5.0 15.0 0.00 0.00 0.00 35 1015.6
20260503000801 55 128 5.0 16.0 0.00 0.00 0.00 34 1015.6
20260502235254 55 193 11.0 18.0 0.00 0.00 0.00 33 1015.5
20260502233750 55 170 4.0 18.0 0.00 0.00 0.00 35 1015.4
20260502232246 55 145 6.0 17.0 0.00 0.00 0.00 32 1015.0
20260502230742 55 160 7.0 16.0 0.00 0.00 0.00 34 1014.8
20260502225238 55 190 7.0 16.0 0.00 0.00 0.00 35 1015.0
20260502223732 55 0 0.0 12.0 0.00 0.00 0.00 35 1014.8
20260502222228 55 125 1.0 13.0 0.00 0.00 0.00 35 1014.7
20260502220722 54 0 0.0 9.0 0.00 0.00 0.00 36 1014.4
20260502213712 54 153 1.0 11.0 0.00 0.00 0.00 35 1014.1
20260502212208 53 143 4.0 15.0 0.00 0.00 0.00 39 1014.0
20260502210703 53 165 5.0 13.0 0.00 0.00 0.00 37 1013.9
20260502205158 52 260 1.0 14.0 0.00 0.00 0.00 41 1014.0
20260502203654 51 147 5.0 13.0 0.00 0.00 0.00 41 1013.7
20260502202150 50 185 7.0 14.0 0.00 0.00 0.00 44 1013.5
20260502200646 49 180 8.0 16.0 0.00 0.00 0.00 44 1013.3
20260502195142 47 137 2.0 5.0 0.00 0.00 0.00 54 1013.1
20260502193636 44 0 0.0 1.0 0.00 0.00 0.00 63 1013.1
20260502192132 44 0 0.0 0.0 0.00 0.00 0.00 66 1013.1
20260502190628 43 0 0.0 5.0 0.00 0.00 0.00 67 1012.8
20260502185124 42 141 1.0 6.0 0.00 0.00 0.00 70 1012.6
20260502183620 41 0 0.0 4.0 0.00 0.00 0.00 72 1012.7
20260502182114 41 0 0.0 0.0 0.00 0.00 0.00 73 1012.6
20260502163538 39 0 0.0 4.0 0.00 0.00 0.00 77 1011.1
20260502162034 38 0 0.0 2.0 0.00 0.00 0.00 78 1010.8
20260502160530 37 319 1.0 5.0 0.00 0.00 0.00 79 1010.5
20260502152015 38 335 2.0 8.0 0.00 0.00 0.00 77 1010.0
20260502150508 38 0 0.0 6.0 0.00 0.00 0.00 74 1009.7
20260502130430 42 135 2.0 11.0 0.00 0.00 0.00 53 1007.3
20260502123422 42 126 5.0 14.0 0.00 0.00 0.00 54 1007.1
20260502121918 42 126 6.0 12.0 0.00 0.00 0.00 53 1007.0
20260502120414 42 114 6.0 18.0 0.00 0.00 0.00 53 1006.9
20260502114908 42 85 1.0 16.0 0.00 0.00 0.00 52 1007.0
20260502113404 42 104 7.0 16.0 0.00 0.00 0.00 52 1006.7
20260502111900 42 124 5.0 14.0 0.00 0.00 0.00 52 1006.6
20260502110354 42 0 0.0 5.0 0.00 0.00 0.00 52 1006.5
20260502104850 42 0 0.0 10.0 0.00 0.00 0.00 51 1006.1
20260502103346 42 119 1.0 12.0 0.00 0.00 0.00 52 1005.8
20260502101840 42 131 1.0 7.0 0.00 0.00 0.00 52 1005.6
20260502100336 42 151 1.0 11.0 0.00 0.00 0.00 52 1005.3
20260502090320 41 0 0.0 19.0 0.00 0.00 0.00 54 1004.2
20260502070246 39 117 6.0 20.0 0.00 0.00 0.00 67 1002.6
20260502064742 38 125 5.0 16.0 0.00 0.00 0.00 69 1002.0
20260502063236 38 132 9.0 23.0 0.00 0.00 0.00 70 1001.7
20260502061730 39 124 7.0 17.0 0.00 0.00 0.00 69 1001.2
20260502060226 39 137 7.0 18.0 0.00 0.00 0.00 67 1001.0
20260502054720 39 126 9.0 19.0 0.00 0.00 0.00 66 1000.8
20260502053216 40 137 9.0 19.0 0.00 0.00 0.00 63 1000.4
20260502051712 40 134 12.0 22.0 0.00 0.00 0.00 60 1000.0
20260502050208 40 128 9.0 18.0 0.00 0.00 0.00 59 999.7
20260502044702 41 130 9.0 22.0 0.00 0.00 0.00 58 999.6
20260502041652 42 139 8.0 20.0 0.00 0.00 0.00 54 999.3
20260502040148 42 117 4.0 22.0 0.00 0.00 0.00 54 999.2
20260502034644 42 129 12.0 25.0 0.00 0.00 0.00 54 999.0
20260502033140 41 130 11.0 17.0 0.00 0.00 0.00 60 998.9
20260502031634 41 130 9.0 24.0 0.00 0.00 0.00 57 998.7
20260502030128 42 137 12.0 23.0 0.00 0.00 0.00 54 998.8
20260502024624 42 131 14.0 23.0 0.00 0.00 0.00 52 999.2